| time (UTC) | temp F | wind direction | speed MPH | gust MPH | rain 1hr in | rain 24hr in | rain mn in | humidity % | barometer mb |
| 20260506062131 | 57 | 173 | 0.0 | 3.0 | 0.00 | 0.00 | 0.00 | 87 | 1016.8 |
| 20260506061627 | 57 | 131 | 1.0 | 5.0 | 0.00 | 0.00 | 0.00 | 87 | 1016.8 |
| 20260506061125 | 57 | 181 | 3.0 | 4.0 | 0.00 | 0.00 | 0.00 | 87 | 1016.6 |
| 20260506060623 | 57 | 175 | 2.0 | 4.0 | 0.00 | 0.00 | 0.00 | 86 | 1016.7 |
| 20260506060120 | 58 | 126 | 2.0 | 4.0 | 0.00 | 0.00 | 0.00 | 86 | 1016.8 |
| 20260506051051 | 59 | 123 | 2.0 | 4.0 | 0.00 | 0.00 | 0.00 | 81 | 1017.0 |
| 20260506050549 | 59 | 113 | 2.0 | 3.0 | 0.00 | 0.00 | 0.00 | 80 | 1017.1 |
| 20260506045040 | 60 | 52 | 1.0 | 4.0 | 0.00 | 0.00 | 0.00 | 79 | 1017.2 |
| 20260506044538 | 60 | 136 | 0.0 | 4.0 | 0.00 | 0.00 | 0.00 | 78 | 1017.3 |
| 20260506044034 | 60 | 240 | 1.0 | 4.0 | 0.00 | 0.00 | 0.00 | 78 | 1017.3 |
| 20260506043531 | 60 | 211 | 2.0 | 3.0 | 0.00 | 0.00 | 0.00 | 77 | 1017.3 |
| 20260506043030 | 60 | 131 | 2.0 | 3.0 | 0.00 | 0.00 | 0.00 | 77 | 1017.0 |
| 20260506042529 | 60 | 101 | 2.0 | 3.0 | 0.00 | 0.00 | 0.00 | 76 | 1017.1 |
| 20260506042026 | 60 | 204 | 2.0 | 4.0 | 0.00 | 0.00 | 0.00 | 75 | 1017.1 |
| 20260506041525 | 60 | 148 | 4.0 | 5.0 | 0.00 | 0.00 | 0.00 | 75 | 1017.1 |
| 20260506041021 | 61 | 177 | 2.0 | 3.0 | 0.00 | 0.00 | 0.00 | 75 | 1017.0 |
| 20260506040519 | 61 | 174 | 2.0 | 4.0 | 0.00 | 0.00 | 0.00 | 74 | 1017.3 |
| 20260506040015 | 61 | 145 | 2.0 | 3.0 | 0.00 | 0.00 | 0.00 | 74 | 1017.0 |
| 20260506035512 | 61 | 168 | 2.0 | 4.0 | 0.00 | 0.00 | 0.00 | 74 | 1017.2 |
| 20260506035008 | 61 | 145 | 1.0 | 4.0 | 0.00 | 0.00 | 0.00 | 74 | 1017.1 |
| 20260506034506 | 61 | 109 | 1.0 | 4.0 | 0.00 | 0.00 | 0.00 | 73 | 1017.1 |
| 20260506034003 | 61 | 159 | 0.0 | 3.0 | 0.00 | 0.00 | 0.00 | 73 | 1017.3 |
| 20260506033500 | 62 | 102 | 1.0 | 3.0 | 0.00 | 0.00 | 0.00 | 73 | 1017.2 |
| 20260506032956 | 62 | 132 | 3.0 | 6.0 | 0.00 | 0.00 | 0.00 | 72 | 1017.1 |
| 20260506032454 | 62 | 170 | 1.0 | 5.0 | 0.00 | 0.00 | 0.00 | 72 | 1017.0 |
| 20260506031950 | 62 | 221 | 3.0 | 4.0 | 0.00 | 0.00 | 0.00 | 72 | 1017.0 |
| 20260506031448 | 62 | 175 | 3.0 | 5.0 | 0.00 | 0.00 | 0.00 | 72 | 1017.0 |
| 20260506030946 | 62 | 176 | 2.0 | 4.0 | 0.00 | 0.00 | 0.00 | 71 | 1016.9 |
| 20260506030443 | 63 | 112 | 1.0 | 4.0 | 0.00 | 0.00 | 0.00 | 70 | 1017.2 |
| 20260506025940 | 63 | 149 | 1.0 | 4.0 | 0.00 | 0.00 | 0.00 | 70 | 1017.2 |
| 20260506025437 | 63 | 167 | 4.0 | 4.0 | 0.00 | 0.00 | 0.00 | 69 | 1017.1 |
| 20260506024933 | 63 | 208 | 1.0 | 3.0 | 0.00 | 0.00 | 0.00 | 70 | 1017.0 |
| 20260506024430 | 63 | 158 | 4.0 | 6.0 | 0.00 | 0.00 | 0.00 | 70 | 1017.0 |
| 20260506023926 | 62 | 185 | 4.0 | 5.0 | 0.00 | 0.00 | 0.00 | 70 | 1017.1 |
| 20260506023423 | 63 | 114 | 2.0 | 5.0 | 0.00 | 0.00 | 0.00 | 69 | 1017.1 |
| 20260506022920 | 63 | 206 | 0.0 | 5.0 | 0.00 | 0.00 | 0.00 | 70 | 1017.0 |
| 20260506022418 | 63 | 144 | 2.0 | 3.0 | 0.00 | 0.00 | 0.00 | 70 | 1017.0 |
| 20260506021915 | 63 | 153 | 2.0 | 3.0 | 0.00 | 0.00 | 0.00 | 70 | 1016.9 |
| 20260506021413 | 63 | 102 | 2.0 | 4.0 | 0.00 | 0.00 | 0.00 | 68 | 1016.9 |
| 20260506020909 | 64 | 148 | 2.0 | 8.0 | 0.00 | 0.00 | 0.00 | 68 | 1016.9 |
| 20260506020407 | 64 | 168 | 4.0 | 4.0 | 0.00 | 0.00 | 0.00 | 68 | 1016.9 |
| 20260506015904 | 64 | 84 | 4.0 | 5.0 | 0.00 | 0.00 | 0.00 | 67 | 1016.8 |
| 20260506015402 | 64 | 240 | 1.0 | 5.0 | 0.00 | 0.00 | 0.00 | 67 | 1016.8 |
| 20260506014858 | 64 | 205 | 3.0 | 3.0 | 0.00 | 0.00 | 0.00 | 67 | 1016.8 |
| 20260506014355 | 64 | 237 | 4.0 | 4.0 | 0.00 | 0.00 | 0.00 | 66 | 1016.9 |
| 20260506013852 | 65 | 60 | 2.0 | 8.0 | 0.00 | 0.00 | 0.00 | 66 | 1016.7 |
| 20260506013350 | 65 | 231 | 3.0 | 6.0 | 0.00 | 0.00 | 0.00 | 65 | 1016.6 |
| 20260506012845 | 64 | 127 | 1.0 | 4.0 | 0.00 | 0.00 | 0.00 | 66 | 1016.4 |
| 20260506012343 | 65 | 207 | 4.0 | 5.0 | 0.00 | 0.00 | 0.00 | 65 | 1016.5 |
| 20260506011840 | 65 | 206 | 2.0 | 5.0 | 0.00 | 0.00 | 0.00 | 64 | 1016.4 |
| 20260506011336 | 65 | 144 | 0.0 | 4.0 | 0.00 | 0.00 | 0.00 | 65 | 1016.3 |
| 20260506010834 | 65 | 202 | 4.0 | 4.0 | 0.00 | 0.00 | 0.00 | 64 | 1016.3 |
| 20260506010332 | 65 | 64 | 3.0 | 5.0 | 0.00 | 0.00 | 0.00 | 63 | 1016.2 |
| 20260506005828 | 65 | 176 | 3.0 | 9.0 | 0.00 | 0.00 | 0.00 | 64 | 1016.2 |
| 20260506005325 | 65 | 212 | 5.0 | 5.0 | 0.00 | 0.00 | 0.00 | 63 | 1016.1 |
| 20260506004821 | 65 | 279 | 2.0 | 4.0 | 0.00 | 0.00 | 0.00 | 63 | 1016.0 |
| 20260506004319 | 65 | 170 | 4.0 | 5.0 | 0.00 | 0.00 | 0.00 | 64 | 1015.8 |
| 20260506003815 | 65 | 209 | 1.0 | 4.0 | 0.00 | 0.00 | 0.00 | 64 | 1015.8 |
| 20260506003312 | 65 | 166 | 2.0 | 9.0 | 0.00 | 0.00 | 0.00 | 63 | 1016.0 |
| 20260506002808 | 65 | 133 | 1.0 | 4.0 | 0.00 | 0.00 | 0.00 | 63 | 1015.8 |
| 20260506002306 | 66 | 155 | 3.0 | 4.0 | 0.00 | 0.00 | 0.00 | 63 | 1015.7 |
| 20260506001800 | 66 | 152 | 2.0 | 3.0 | 0.00 | 0.00 | 0.00 | 63 | 1015.4 |
| 20260506001258 | 66 | 171 | 1.0 | 4.0 | 0.00 | 0.00 | 0.00 | 63 | 1015.6 |
| 20260506000754 | 66 | 156 | 2.0 | 4.0 | 0.00 | 0.00 | 0.00 | 63 | 1015.7 |
| 20260506000254 | 66 | 48 | 0.0 | 4.0 | 0.00 | 0.00 | 0.00 | 63 | 1015.6 |
| 20260505235749 | 66 | 211 | 3.0 | 6.0 | 0.00 | 0.00 | 0.00 | 63 | 1015.3 |
| 20260505235246 | 66 | 132 | 2.0 | 4.0 | 0.00 | 0.00 | 0.00 | 62 | 1015.7 |
| 20260505234743 | 66 | 214 | 2.0 | 4.0 | 0.00 | 0.00 | 0.00 | 63 | 1015.2 |
| 20260505234241 | 67 | 161 | 2.0 | 4.0 | 0.00 | 0.00 | 0.00 | 61 | 1015.3 |
| 20260505233737 | 67 | 196 | 2.0 | 4.0 | 0.00 | 0.00 | 0.00 | 62 | 1015.2 |
| 20260505233235 | 67 | 35 | 2.0 | 4.0 | 0.00 | 0.00 | 0.00 | 61 | 1015.1 |
| 20260505232732 | 67 | 279 | 0.0 | 3.0 | 0.00 | 0.00 | 0.00 | 61 | 1015.1 |
| 20260505232230 | 67 | 185 | 3.0 | 4.0 | 0.00 | 0.00 | 0.00 | 59 | 1014.9 |
| 20260505231726 | 68 | 157 | 1.0 | 3.0 | 0.00 | 0.00 | 0.00 | 60 | 1015.0 |
| 20260505231225 | 68 | 156 | 2.0 | 4.0 | 0.00 | 0.00 | 0.00 | 59 | 1014.8 |
| 20260505230723 | 68 | 159 | 0.0 | 8.0 | 0.00 | 0.00 | 0.00 | 58 | 1014.7 |
| 20260505230219 | 69 | 185 | 3.0 | 3.0 | 0.00 | 0.00 | 0.00 | 58 | 1014.7 |
| 20260505225715 | 69 | 158 | 3.0 | 4.0 | 0.00 | 0.00 | 0.00 | 58 | 1014.7 |
| 20260505225213 | 69 | 163 | 2.0 | 4.0 | 0.00 | 0.00 | 0.00 | 57 | 1014.8 |
| 20260505224708 | 70 | 190 | 4.0 | 5.0 | 0.00 | 0.00 | 0.00 | 57 | 1014.6 |
| 20260505224206 | 70 | 170 | 2.0 | 4.0 | 0.00 | 0.00 | 0.00 | 57 | 1014.6 |
| 20260505223703 | 70 | 139 | 2.0 | 6.0 | 0.00 | 0.00 | 0.00 | 56 | 1014.6 |
| 20260505223159 | 71 | 2 | 1.0 | 4.0 | 0.00 | 0.00 | 0.00 | 55 | 1014.5 |
| 20260505222655 | 70 | 211 | 3.0 | 4.0 | 0.00 | 0.00 | 0.00 | 55 | 1014.4 |
| 20260505222151 | 71 | 218 | 2.0 | 9.0 | 0.00 | 0.00 | 0.00 | 54 | 1014.4 |
| 20260505221649 | 71 | 90 | 3.0 | 4.0 | 0.00 | 0.00 | 0.00 | 53 | 1014.7 |
| 20260505221145 | 71 | 253 | 2.0 | 8.0 | 0.00 | 0.00 | 0.00 | 53 | 1014.5 |
| 20260505220643 | 72 | 249 | 0.0 | 7.0 | 0.00 | 0.00 | 0.00 | 52 | 1014.7 |
| 20260505220140 | 73 | 185 | 2.0 | 4.0 | 0.00 | 0.00 | 0.00 | 53 | 1014.7 |
| 20260505215638 | 73 | 189 | 4.0 | 6.0 | 0.00 | 0.00 | 0.00 | 52 | 1014.5 |
| 20260505215136 | 73 | 143 | 2.0 | 6.0 | 0.00 | 0.00 | 0.00 | 52 | 1014.6 |
| 20260505214633 | 73 | 207 | 3.0 | 15.0 | 0.00 | 0.00 | 0.00 | 51 | 1014.5 |
| 20260505214130 | 74 | 149 | 3.0 | 5.0 | 0.00 | 0.00 | 0.00 | 52 | 1014.3 |
| 20260505213628 | 74 | 49 | 3.0 | 6.0 | 0.00 | 0.00 | 0.00 | 51 | 1014.2 |
| 20260505213124 | 74 | 139 | 2.0 | 11.0 | 0.00 | 0.00 | 0.00 | 51 | 1014.3 |
| 20260505212620 | 75 | 213 | 1.0 | 5.0 | 0.00 | 0.00 | 0.00 | 50 | 1014.3 |
| 20260505212118 | 75 | 204 | 2.0 | 5.0 | 0.00 | 0.00 | 0.00 | 50 | 1014.2 |
| 20260505211615 | 74 | 81 | 1.0 | 9.0 | 0.00 | 0.00 | 0.00 | 51 | 1014.2 |
| 20260505211112 | 75 | 261 | 6.0 | 6.0 | 0.00 | 0.00 | 0.00 | 50 | 1014.2 |
| 20260505210609 | 76 | 239 | 4.0 | 6.0 | 0.00 | 0.00 | 0.00 | 50 | 1014.2 |
| 20260505210106 | 75 | 244 | 3.0 | 8.0 | 0.00 | 0.00 | 0.00 | 50 | 1014.1 |
| 20260505205603 | 75 | 198 | 2.0 | 9.0 | 0.00 | 0.00 | 0.00 | 51 | 1014.1 |
| 20260505205101 | 76 | 190 | 4.0 | 6.0 | 0.00 | 0.00 | 0.00 | 51 | 1014.3 |
| 20260505204558 | 75 | 233 | 4.0 | 8.0 | 0.00 | 0.00 | 0.00 | 50 | 1014.3 |
| 20260505204055 | 76 | 101 | 2.0 | 10.0 | 0.00 | 0.00 | 0.00 | 49 | 1014.4 |
| 20260505203551 | 75 | 265 | 4.0 | 8.0 | 0.00 | 0.00 | 0.00 | 50 | 1014.4 |
| 20260505203049 | 76 | 238 | 5.0 | 9.0 | 0.00 | 0.00 | 0.00 | 48 | 1014.6 |
| 20260505202544 | 76 | 267 | 2.0 | 6.0 | 0.00 | 0.00 | 0.00 | 50 | 1014.4 |
| 20260505202041 | 76 | 250 | 10.0 | 11.0 | 0.00 | 0.00 | 0.00 | 47 | 1014.5 |
| 20260505201538 | 75 | 220 | 4.0 | 15.0 | 0.00 | 0.00 | 0.00 | 49 | 1014.5 |
| 20260505201036 | 76 | 280 | 8.0 | 12.0 | 0.00 | 0.00 | 0.00 | 48 | 1014.5 |
| 20260505200533 | 77 | 224 | 1.0 | 6.0 | 0.00 | 0.00 | 0.00 | 48 | 1014.5 |
| 20260505200030 | 78 | 90 | 2.0 | 7.0 | 0.00 | 0.00 | 0.00 | 48 | 1014.5 |
| 20260505195526 | 78 | 219 | 2.0 | 9.0 | 0.00 | 0.00 | 0.00 | 46 | 1014.6 |
| 20260505195023 | 76 | 162 | 4.0 | 14.0 | 0.00 | 0.00 | 0.00 | 47 | 1014.6 |
| 20260505194515 | 76 | 150 | 2.0 | 8.0 | 0.00 | 0.00 | 0.00 | 49 | 1014.8 |
| 20260505194015 | 77 | 270 | 5.0 | 11.0 | 0.00 | 0.00 | 0.00 | 46 | 1014.7 |
| 20260505193513 | 77 | 115 | 4.0 | 11.0 | 0.00 | 0.00 | 0.00 | 48 | 1014.7 |
| 20260505193010 | 79 | 222 | 7.0 | 17.0 | 0.00 | 0.00 | 0.00 | 44 | 1014.9 |
| 20260505192509 | 80 | 268 | 2.0 | 6.0 | 0.00 | 0.00 | 0.00 | 44 | 1015.0 |
| 20260505192006 | 77 | 251 | 6.0 | 8.0 | 0.00 | 0.00 | 0.00 | 45 | 1014.7 |
| 20260505191504 | 77 | 298 | 3.0 | 19.0 | 0.00 | 0.00 | 0.00 | 46 | 1014.9 |
| 20260505191002 | 78 | 200 | 6.0 | 11.0 | 0.00 | 0.00 | 0.00 | 44 | 1014.8 |
| 20260505190456 | 80 | 239 | 5.0 | 6.0 | 0.00 | 0.00 | 0.00 | 44 | 1014.9 |
| 20260505185952 | 78 | 316 | 4.0 | 12.0 | 0.00 | 0.00 | 0.00 | 45 | 1015.0 |
| 20260505185450 | 79 | 194 | 1.0 | 8.0 | 0.00 | 0.00 | 0.00 | 46 | 1015.4 |
| 20260505184945 | 80 | 198 | 3.0 | 6.0 | 0.00 | 0.00 | 0.00 | 42 | 1015.2 |
| 20260505184442 | 80 | 65 | 5.0 | 11.0 | 0.00 | 0.00 | 0.00 | 43 | 1015.1 |
| 20260505183939 | 79 | 78 | 2.0 | 11.0 | 0.00 | 0.00 | 0.00 | 43 | 1015.3 |
| 20260505183436 | 80 | 353 | 6.0 | 6.0 | 0.00 | 0.00 | 0.00 | 41 | 1015.3 |
| 20260505182933 | 78 | 240 | 1.0 | 14.0 | 0.00 | 0.00 | 0.00 | 44 | 1015.1 |
| 20260505182430 | 80 | 98 | 4.0 | 7.0 | 0.00 | 0.00 | 0.00 | 41 | 1015.3 |
| 20260505181926 | 79 | 326 | 4.0 | 8.0 | 0.00 | 0.00 | 0.00 | 42 | 1015.4 |
| 20260505181424 | 79 | 341 | 0.0 | 5.0 | 0.00 | 0.00 | 0.00 | 43 | 1015.3 |
| 20260505180920 | 79 | 189 | 1.0 | 6.0 | 0.00 | 0.00 | 0.00 | 45 | 1015.3 |
| 20260505180416 | 81 | 321 | 3.0 | 6.0 | 0.00 | 0.00 | 0.00 | 43 | 1015.4 |
| 20260505175913 | 80 | 310 | 3.0 | 6.0 | 0.00 | 0.00 | 0.00 | 43 | 1015.4 |
| 20260505175409 | 80 | 206 | 4.0 | 7.0 | 0.00 | 0.00 | 0.00 | 42 | 1015.7 |
| 20260505174906 | 79 | 263 | 5.0 | 8.0 | 0.00 | 0.00 | 0.00 | 43 | 1015.6 |
| 20260505174404 | 78 | 219 | 4.0 | 9.0 | 0.00 | 0.00 | 0.00 | 45 | 1015.4 |
| 20260505173859 | 78 | 259 | 2.0 | 6.0 | 0.00 | 0.00 | 0.00 | 46 | 1015.7 |
| 20260505173356 | 78 | 304 | 4.0 | 9.0 | 0.00 | 0.00 | 0.00 | 44 | 1015.6 |
| 20260505172853 | 78 | 254 | 2.0 | 10.0 | 0.00 | 0.00 | 0.00 | 45 | 1015.6 |
| 20260505172351 | 78 | 228 | 5.0 | 7.0 | 0.00 | 0.00 | 0.00 | 44 | 1015.7 |
| 20260505171850 | 79 | 215 | 2.0 | 4.0 | 0.00 | 0.00 | 0.00 | 46 | 1015.9 |
| 20260505171347 | 79 | 219 | 9.0 | 13.0 | 0.00 | 0.00 | 0.00 | 44 | 1015.7 |
| 20260505170844 | 78 | 189 | 2.0 | 4.0 | 0.00 | 0.00 | 0.00 | 45 | 1015.8 |
| 20260505170341 | 78 | 260 | 3.0 | 9.0 | 0.00 | 0.00 | 0.00 | 44 | 1015.9 |
| 20260505165836 | 78 | 261 | 4.0 | 4.0 | 0.00 | 0.00 | 0.00 | 48 | 1015.8 |
| 20260505165332 | 79 | 162 | 3.0 | 5.0 | 0.00 | 0.00 | 0.00 | 45 | 1015.9 |
| 20260505164828 | 77 | 334 | 5.0 | 11.0 | 0.00 | 0.00 | 0.00 | 45 | 1016.1 |
| 20260505164325 | 77 | 4 | 4.0 | 8.0 | 0.00 | 0.00 | 0.00 | 46 | 1016.0 |
| 20260505163823 | 77 | 196 | 3.0 | 5.0 | 0.00 | 0.00 | 0.00 | 49 | 1016.2 |
| 20260505163321 | 76 | 80 | 2.0 | 5.0 | 0.00 | 0.00 | 0.00 | 49 | 1016.1 |
| 20260505162814 | 76 | 292 | 2.0 | 5.0 | 0.00 | 0.00 | 0.00 | 49 | 1016.5 |
| 20260505162310 | 76 | 71 | 3.0 | 10.0 | 0.00 | 0.00 | 0.00 | 47 | 1016.5 |
| 20260505161807 | 76 | 333 | 4.0 | 7.0 | 0.00 | 0.00 | 0.00 | 48 | 1016.7 |
| 20260505161305 | 75 | 172 | 1.0 | 8.0 | 0.00 | 0.00 | 0.00 | 49 | 1016.6 |
| 20260505160802 | 76 | 306 | 1.0 | 6.0 | 0.00 | 0.00 | 0.00 | 49 | 1016.6 |
| 20260505160300 | 75 | 212 | 4.0 | 5.0 | 0.00 | 0.00 | 0.00 | 50 | 1016.6 |
| 20260505153238 | 75 | 225 | 4.0 | 6.0 | 0.00 | 0.00 | 0.00 | 49 | 1016.8 |
| 20260505152735 | 76 | 231 | 5.0 | 6.0 | 0.00 | 0.00 | 0.00 | 47 | 1016.8 |
| 20260505152231 | 75 | 244 | 2.0 | 4.0 | 0.00 | 0.00 | 0.00 | 49 | 1017.2 |
| 20260505151726 | 74 | 130 | 1.0 | 4.0 | 0.00 | 0.00 | 0.00 | 50 | 1016.9 |
| 20260505151224 | 73 | 180 | 3.0 | 9.0 | 0.00 | 0.00 | 0.00 | 51 | 1017.0 |
| 20260505150720 | 73 | 245 | 1.0 | 3.0 | 0.00 | 0.00 | 0.00 | 53 | 1017.3 |
| 20260505150218 | 73 | 224 | 3.0 | 5.0 | 0.00 | 0.00 | 0.00 | 54 | 1017.4 |
| 20260505140650 | 67 | 209 | 0.0 | 2.0 | 0.00 | 0.00 | 0.00 | 66 | 1017.7 |
| 20260505140147 | 66 | 244 | 0.0 | 4.0 | 0.00 | 0.00 | 0.00 | 65 | 1017.4 |
| 20260505130111 | 57 | 201 | 3.0 | 3.0 | 0.00 | 0.00 | 0.00 | 85 | 1017.0 |
| 20260505124600 | 58 | 192 | 3.0 | 6.0 | 0.00 | 0.00 | 0.00 | 82 | 1016.8 |
| 20260505124057 | 58 | 182 | 2.0 | 4.0 | 0.00 | 0.00 | 0.00 | 84 | 1016.5 |
| 20260505123553 | 57 | 126 | 2.0 | 4.0 | 0.00 | 0.00 | 0.00 | 84 | 1016.3 |
| 20260505123050 | 57 | 195 | 2.0 | 2.0 | 0.00 | 0.00 | 0.00 | 86 | 1016.6 |
| 20260505122548 | 59 | 107 | 0.0 | 2.0 | 0.00 | 0.00 | 0.00 | 76 | 1017.0 |
| 20260505122045 | 59 | 249 | 1.0 | 4.0 | 0.00 | 0.00 | 0.00 | 75 | 1017.1 |
| 20260505121541 | 58 | 157 | 0.0 | 2.0 | 0.00 | 0.00 | 0.00 | 77 | 1017.6 |
| 20260505121038 | 58 | 200 | 0.0 | 2.0 | 0.00 | 0.00 | 0.00 | 76 | 1017.4 |
| 20260505120534 | 58 | 203 | 3.0 | 3.0 | 0.00 | 0.00 | 0.00 | 75 | 1017.6 |
| 20260505120030 | 58 | 218 | 2.0 | 4.0 | 0.00 | 0.00 | 0.00 | 77 | 1017.5 |
| 20260505115524 | 58 | 223 | 2.0 | 3.0 | 0.00 | 0.00 | 0.00 | 78 | 1017.6 |
| 20260505115022 | 58 | 239 | 2.0 | 3.0 | 0.00 | 0.00 | 0.00 | 76 | 1017.5 |
| 20260505114519 | 57 | 172 | 2.0 | 4.0 | 0.00 | 0.00 | 0.00 | 79 | 1017.6 |
| 20260505114015 | 56 | 201 | 2.0 | 3.0 | 0.00 | 0.00 | 0.00 | 80 | 1017.7 |
| 20260505113506 | 56 | 149 | 2.0 | 4.0 | 0.00 | 0.00 | 0.00 | 83 | 1017.8 |
| 20260505113003 | 56 | 224 | 1.0 | 3.0 | 0.00 | 0.00 | 0.00 | 82 | 1017.7 |
| 20260505112459 | 55 | 213 | 2.0 | 4.0 | 0.00 | 0.00 | 0.00 | 82 | 1017.7 |
| 20260505111956 | 55 | 155 | 2.0 | 3.0 | 0.00 | 0.00 | 0.00 | 85 | 1017.7 |
| 20260505111455 | 54 | 168 | 3.0 | 3.0 | 0.00 | 0.00 | 0.00 | 87 | 1017.6 |
| 20260505110952 | 53 | 144 | 2.0 | 3.0 | 0.00 | 0.00 | 0.00 | 89 | 1017.6 |
| 20260505110449 | 52 | 183 | 3.0 | 4.0 | 0.00 | 0.00 | 0.00 | 90 | 1017.5 |
| 20260505101920 | 51 | 343 | 2.0 | 4.0 | 0.00 | 0.00 | 0.00 | 92 | 1016.8 |
| 20260505101415 | 51 | 253 | 3.0 | 4.0 | 0.00 | 0.00 | 0.00 | 93 | 1016.8 |
| 20260505100911 | 50 | 200 | 2.0 | 3.0 | 0.00 | 0.00 | 0.00 | 93 | 1016.7 |
| 20260505100408 | 50 | 150 | 4.0 | 5.0 | 0.00 | 0.00 | 0.00 | 93 | 1016.4 |
| 20260505095903 | 50 | 150 | 2.0 | 5.0 | 0.00 | 0.00 | 0.00 | 93 | 1016.7 |
| 20260505095401 | 49 | 182 | 2.0 | 3.0 | 0.00 | 0.00 | 0.00 | 93 | 1016.7 |
| 20260505094857 | 49 | 129 | 1.0 | 2.0 | 0.00 | 0.00 | 0.00 | 93 | 1016.7 |
| 20260505094354 | 49 | 213 | 2.0 | 3.0 | 0.00 | 0.00 | 0.00 | 93 | 1016.7 |
| 20260505093850 | 49 | 72 | 0.0 | 4.0 | 0.00 | 0.00 | 0.00 | 92 | 1016.6 |
| 20260505093347 | 49 | 315 | 0.0 | 3.0 | 0.00 | 0.00 | 0.00 | 92 | 1016.5 |
| 20260505092844 | 49 | 78 | 1.0 | 5.0 | 0.00 | 0.00 | 0.00 | 92 | 1016.7 |
| 20260505092343 | 49 | 164 | 3.0 | 3.0 | 0.00 | 0.00 | 0.00 | 92 | 1016.5 |
| 20260505091839 | 49 | 85 | 1.0 | 4.0 | 0.00 | 0.00 | 0.00 | 92 | 1016.6 |
| 20260505091338 | 50 | 153 | 2.0 | 4.0 | 0.00 | 0.00 | 0.00 | 91 | 1016.5 |
| 20260505090835 | 50 | 146 | 2.0 | 4.0 | 0.00 | 0.00 | 0.00 | 91 | 1016.4 |
| 20260505090333 | 50 | 124 | 2.0 | 4.0 | 0.00 | 0.00 | 0.00 | 90 | 1016.4 |
| 20260505085830 | 50 | 187 | 3.0 | 4.0 | 0.00 | 0.00 | 0.00 | 89 | 1016.5 |
| 20260505085328 | 50 | 102 | 1.0 | 6.0 | 0.00 | 0.00 | 0.00 | 89 | 1016.4 |
| 20260505084826 | 50 | 133 | 1.0 | 4.0 | 0.00 | 0.00 | 0.00 | 89 | 1016.5 |
| 20260505084324 | 50 | 166 | 3.0 | 4.0 | 0.00 | 0.00 | 0.00 | 88 | 1016.4 |
| 20260505083820 | 51 | 171 | 2.0 | 4.0 | 0.00 | 0.00 | 0.00 | 88 | 1016.4 |
| 20260505083318 | 51 | 131 | 1.0 | 4.0 | 0.00 | 0.00 | 0.00 | 88 | 1016.5 |
| 20260505082814 | 51 | 135 | 0.0 | 5.0 | 0.00 | 0.00 | 0.00 | 87 | 1016.5 |
| 20260505082310 | 51 | 111 | 1.0 | 5.0 | 0.00 | 0.00 | 0.00 | 86 | 1016.5 |
| 20260505081807 | 51 | 176 | 3.0 | 4.0 | 0.00 | 0.00 | 0.00 | 86 | 1016.6 |
| 20260505081304 | 51 | 128 | 2.0 | 4.0 | 0.00 | 0.00 | 0.00 | 86 | 1016.5 |
| 20260505080801 | 51 | 166 | 2.0 | 4.0 | 0.00 | 0.00 | 0.00 | 85 | 1016.5 |
| 20260505080256 | 51 | 123 | 2.0 | 4.0 | 0.00 | 0.00 | 0.00 | 86 | 1016.6 |
| 20260505075752 | 51 | 147 | 2.0 | 4.0 | 0.00 | 0.00 | 0.00 | 85 | 1016.6 |
| 20260505075249 | 51 | 105 | 1.0 | 3.0 | 0.00 | 0.00 | 0.00 | 85 | 1016.7 |
| 20260505074746 | 51 | 128 | 0.0 | 4.0 | 0.00 | 0.00 | 0.00 | 84 | 1016.7 |
| 20260505074243 | 51 | 141 | 0.0 | 3.0 | 0.00 | 0.00 | 0.00 | 84 | 1016.7 |
| 20260505073741 | 52 | 154 | 1.0 | 3.0 | 0.00 | 0.00 | 0.00 | 83 | 1016.7 |
| 20260505073239 | 52 | 87 | 1.0 | 5.0 | 0.00 | 0.00 | 0.00 | 82 | 1016.4 |
| 20260505072735 | 52 | 184 | 2.0 | 3.0 | 0.00 | 0.00 | 0.00 | 81 | 1016.4 |
| 20260505072231 | 53 | 155 | 2.0 | 4.0 | 0.00 | 0.00 | 0.00 | 81 | 1016.5 |
| 20260505071727 | 52 | 162 | 3.0 | 4.0 | 0.00 | 0.00 | 0.00 | 81 | 1016.5 |
| 20260505071224 | 52 | 129 | 1.0 | 4.0 | 0.00 | 0.00 | 0.00 | 81 | 1016.6 |
| 20260505070722 | 53 | 193 | 2.0 | 3.0 | 0.00 | 0.00 | 0.00 | 80 | 1016.4 |
| 20260505070218 | 53 | 123 | 2.0 | 4.0 | 0.00 | 0.00 | 0.00 | 80 | 1016.4 |
| 20260505065714 | 53 | 159 | 4.0 | 4.0 | 0.00 | 0.00 | 0.00 | 80 | 1016.5 |